Location: Unspecified
(45.2733°N, 0.0000°E)
Time: 12:26:34
(UTC+00:00)

N. Korean satellite - Visible Passes

Search period start: 23 October 2019 00:00
Search period end: 02 November 2019 00:00
Orbit: 455 x 508 km, 97.2° (Epoch: 22 October)

Date Brightness Start Highest point End Pass type
(mag) Time Alt. Az. Time Alt. Az. Time Alt. Az.
23 Oct 9.7 05:07:24 10° NE 05:10:06 19° E 05:12:49 10° SE visible
25 Oct 7.2 05:49:24 10° NNE 05:53:03 64° E 05:56:42 10° S visible
25 Oct 9.9 18:01:25 10° SW 18:03:44 17° W 18:06:05 10° NW visible
26 Oct 8.8 05:24:23 10° NNE 05:27:40 31° E 05:30:58 10° SSE visible
26 Oct 8.5 17:35:06 10° SSW 17:38:15 33° W 17:41:29 10° NNW visible
27 Oct 10.0 04:59:49 10° NE 05:02:12 16° E 05:04:34 10° SE visible
28 Oct 10.4 18:20:32 10° WSW 18:21:19 11° W 18:22:06 10° WNW visible
29 Oct 7.7 05:41:33 10° NNE 05:45:10 51° E 05:48:47 10° S visible
29 Oct 9.5 17:53:05 10° SW 17:55:46 21° W 17:58:30 10° NW visible
30 Oct 9.2 05:16:37 10° NE 05:19:44 25° E 05:22:52 10° SSE visible
30 Oct 8.0 17:27:00 10° S 17:30:18 42° W 17:33:41 10° NNW visible
31 Oct 10.2 04:52:20 10° ENE 04:54:14 13° E 04:56:07 10° ESE visible
01 Nov 6.7 05:58:52 10° NNE 06:02:35 86° ESE 06:06:19 10° SSW visible
01 Nov 10.1 18:11:31 10° WSW 18:13:18 13° W 18:15:05 10° WNW visible
